KB2SKP Weather Reports


time (UTC)temp
C
wind
direction
speed
KPH
gust
KPH
rain 1hr
cm
rain 24hr
cm
rain mn
cm
humidity
%
barometer
mb
20260504110515 11 52 1.6 3.2 0.00 0.00 0.00 67 1012.2
20260504100437 11 124 0.0 3.2 0.00 0.00 0.00 71 1012.4
20260504081830 10 146 0.0 4.8 0.00 0.00 0.00 77 1012.5
20260504081326 10 88 3.2 4.8 0.00 0.00 0.00 76 1012.5
20260504080822 10 120 1.6 4.8 0.00 0.00 0.00 78 1012.6
20260504080320 10 56 0.0 4.8 0.00 0.00 0.00 79 1012.6
20260504070241 8 76 1.6 4.8 0.00 0.00 0.00 82 1012.9
20260504060202 8 119 1.6 4.8 0.00 0.00 0.00 84 1012.6
20260504050630 7 102 3.2 4.8 0.00 0.00 0.00 85 1013.0
20260504050127 7 99 3.2 4.8 0.00 0.00 0.00 85 1012.9
20260504045624 6 110 4.8 4.8 0.00 0.00 0.00 85 1012.9
20260504045118 6 91 3.2 4.8 0.00 0.00 0.00 85 1012.9
20260504044617 6 117 1.6 3.2 0.00 0.00 0.00 85 1012.9
20260504044113 6 94 3.2 4.8 0.00 0.00 0.00 85 1013.0
20260504043610 6 111 3.2 4.8 0.00 0.00 0.00 85 1012.9
20260504043108 6 103 3.2 4.8 0.00 0.00 0.00 85 1013.1
20260504042605 6 115 3.2 4.8 0.00 0.00 0.00 85 1013.0
20260504042101 6 114 3.2 4.8 0.00 0.00 0.00 85 1012.8
20260504041557 6 102 3.2 4.8 0.00 0.00 0.00 85 1012.8
20260504041054 6 83 3.2 3.2 0.00 0.00 0.00 85 1012.8
20260504040551 6 106 1.6 3.2 0.00 0.00 0.00 84 1012.9
20260504040047 6 86 1.6 4.8 0.00 0.00 0.00 84 1012.8
20260504035544 6 111 3.2 4.8 0.00 0.00 0.00 84 1012.7
20260504035040 6 103 3.2 4.8 0.00 0.00 0.00 83 1012.7
20260504034539 6 105 3.2 3.2 0.00 0.00 0.00 83 1012.8
20260504034035 6 105 3.2 4.8 0.00 0.00 0.00 82 1012.8
20260504033533 6 107 3.2 4.8 0.00 0.00 0.00 82 1012.5
20260504033030 6 132 3.2 4.8 0.00 0.00 0.00 82 1012.7
20260504032527 6 109 3.2 4.8 0.00 0.00 0.00 82 1012.5
20260504032024 6 115 4.8 4.8 0.00 0.00 0.00 81 1012.6
20260504031521 6 97 3.2 4.8 0.00 0.00 0.00 81 1012.4
20260504031017 6 83 3.2 4.8 0.00 0.00 0.00 80 1012.6
20260504030515 6 107 3.2 4.8 0.00 0.00 0.00 80 1012.5
20260504030011 6 108 1.6 3.2 0.00 0.00 0.00 80 1012.5
20260504025508 6 109 3.2 4.8 0.00 0.00 0.00 80 1012.6
20260504025005 6 155 3.2 4.8 0.00 0.00 0.00 79 1012.6
20260504024502 6 101 3.2 4.8 0.00 0.00 0.00 79 1012.5
20260504023959 6 110 3.2 4.8 0.00 0.00 0.00 79 1012.4
20260504023455 6 94 3.2 4.8 0.00 0.00 0.00 78 1012.4
20260504022950 6 102 3.2 4.8 0.00 0.00 0.00 78 1012.4
20260504022447 7 121 1.6 4.8 0.00 0.00 0.00 77 1012.4
20260504021944 7 144 1.6 4.8 0.00 0.00 0.00 77 1012.3
20260504021441 7 107 3.2 3.2 0.00 0.00 0.00 77 1012.4
20260504020938 7 112 1.6 3.2 0.00 0.00 0.00 77 1012.4
20260504020435 7 121 3.2 3.2 0.00 0.00 0.00 76 1012.4
20260504015932 7 118 3.2 3.2 0.00 0.00 0.00 75 1012.2
20260504015427 7 107 1.6 3.2 0.00 0.00 0.00 75 1012.1
20260504014923 7 107 3.2 4.8 0.00 0.00 0.00 75 1012.3
20260504014420 7 109 3.2 3.2 0.00 0.00 0.00 74 1012.3
20260504013917 7 123 1.6 3.2 0.00 0.00 0.00 74 1012.4
20260504013415 7 106 3.2 3.2 0.00 0.00 0.00 73 1012.1
20260504012911 7 118 3.2 3.2 0.00 0.00 0.00 72 1012.3
20260504012409 8 121 3.2 3.2 0.00 0.00 0.00 72 1012.2
20260504011906 8 124 0.0 3.2 0.00 0.00 0.00 71 1012.1
20260504011403 8 125 3.2 4.8 0.00 0.00 0.00 70 1012.0
20260504010859 8 135 0.0 3.2 0.00 0.00 0.00 69 1012.1
20260504010354 8 100 3.2 3.2 0.00 0.00 0.00 68 1012.0
20260504005845 8 102 1.6 3.2 0.00 0.00 0.00 68 1012.1
20260504005342 8 112 1.6 3.2 0.00 0.00 0.00 66 1012.1
20260504004840 9 94 1.6 3.2 0.00 0.00 0.00 65 1011.9
20260504004337 10 130 3.2 3.2 0.00 0.00 0.00 64 1012.0
20260504003834 10 112 1.6 3.2 0.00 0.00 0.00 62 1011.8
20260504003331 10 109 0.0 3.2 0.00 0.00 0.00 62 1011.7
20260504002827 10 97 0.0 1.6 0.00 0.00 0.00 59 1011.7
20260504002324 10 135 0.0 1.6 0.00 0.00 0.00 58 1011.7
20260504001822 10 130 0.0 1.6 0.00 0.00 0.00 57 1011.7
20260504001319 11 135 1.6 1.6 0.00 0.00 0.00 55 1011.7
20260504000815 11 135 0.0 1.6 0.00 0.00 0.00 54 1011.6
20260504000313 11 126 1.6 1.6 0.00 0.00 0.00 53 1011.7
20260503235810 12 136 0.0 1.6 0.00 0.00 0.00 54 1011.5
20260503235308 12 114 3.2 3.2 0.00 0.00 0.00 52 1011.4
20260503234805 12 103 1.6 3.2 0.00 0.00 0.00 51 1011.4
20260503234303 12 114 0.0 1.6 0.00 0.00 0.00 50 1011.2
20260503233800 13 106 1.6 1.6 0.00 0.00 0.00 49 1011.3
20260503233255 13 129 0.0 0.0 0.00 0.00 0.00 47 1011.1
20260503232753 13 101 0.0 3.2 0.00 0.00 0.00 47 1011.2
20260503232250 14 116 1.6 3.2 0.00 0.00 0.00 42 1011.1
20260503231748 15 122 0.0 3.2 0.00 0.00 0.00 37 1011.0
20260503231245 15 108 4.8 4.8 0.00 0.00 0.00 37 1011.2
20260503230740 15 119 0.0 1.6 0.00 0.00 0.00 38 1011.1
20260503230237 15 123 0.0 3.2 0.00 0.00 0.00 36 1011.2
20260503225730 15 136 3.2 3.2 0.00 0.00 0.00 36 1011.2
20260503225229 15 113 6.4 6.4 0.00 0.00 0.00 34 1011.3
20260503224727 15 144 3.2 3.2 0.00 0.00 0.00 36 1011.3
20260503224225 15 1 3.2 8.0 0.00 0.00 0.00 33 1011.2
20260503223722 15 137 3.2 4.8 0.00 0.00 0.00 34 1011.3
20260503223220 15 154 1.6 4.8 0.00 0.00 0.00 34 1011.3
20260503222716 15 116 3.2 4.8 0.00 0.00 0.00 35 1011.0
20260503222214 15 306 3.2 4.8 0.00 0.00 0.00 34 1011.2
20260503221712 15 186 1.6 12.9 0.00 0.00 0.00 33 1011.4
20260503221209 15 277 1.6 9.7 0.00 0.00 0.00 33 1011.4
20260503220706 16 88 3.2 9.7 0.00 0.00 0.00 32 1011.3
20260503220202 16 229 0.0 8.0 0.00 0.00 0.00 33 1011.2
20260503215659 16 137 4.8 8.0 0.00 0.00 0.00 32 1011.3
20260503215156 15 213 1.6 6.4 0.00 0.00 0.00 33 1011.4
20260503214655 16 201 4.8 8.0 0.00 0.00 0.00 32 1011.3
20260503214149 16 202 3.2 9.7 0.00 0.00 0.00 34 1011.2
20260503213644 15 235 3.2 6.4 0.00 0.00 0.00 33 1011.2
20260503213140 15 160 3.2 9.7 0.00 0.00 0.00 32 1011.3
20260503212638 16 316 6.4 6.4 0.00 0.00 0.00 32 1011.4
20260503212135 16 240 0.0 6.4 0.00 0.00 0.00 33 1011.2
20260503211633 16 184 3.2 11.3 0.00 0.00 0.00 32 1011.3
20260503211127 16 134 0.0 6.4 0.00 0.00 0.00 33 1011.1
20260503210624 16 257 3.2 6.4 0.00 0.00 0.00 32 1011.1
20260503210121 16 243 0.0 4.8 0.00 0.00 0.00 33 1010.9
20260503205617 15 220 1.6 11.3 0.00 0.00 0.00 32 1011.1
20260503205113 15 136 4.8 8.0 0.00 0.00 0.00 32 1011.1
20260503204610 16 235 11.3 11.3 0.00 0.00 0.00 31 1011.2
20260503204108 16 226 1.6 8.0 0.00 0.00 0.00 33 1010.9
20260503203604 16 244 1.6 8.0 0.00 0.00 0.00 33 1011.3
20260503203102 16 192 3.2 6.4 0.00 0.00 0.00 31 1011.3
20260503202559 16 138 8.0 8.0 0.00 0.00 0.00 33 1011.2
20260503202057 16 45 8.0 8.0 0.00 0.00 0.00 32 1011.2
20260503201555 16 137 8.0 8.0 0.00 0.00 0.00 34 1011.3
20260503201051 15 149 0.0 9.7 0.00 0.00 0.00 33 1011.4
20260503200547 15 149 4.8 6.4 0.00 0.00 0.00 32 1011.7
20260503200044 15 182 6.4 8.0 0.00 0.00 0.00 33 1011.6
20260503195541 15 213 4.8 8.0 0.00 0.00 0.00 32 1011.6
20260503195038 16 180 4.8 8.0 0.00 0.00 0.00 32 1011.7
20260503194535 15 220 3.2 9.7 0.00 0.00 0.00 32 1011.8
20260503194036 16 297 3.2 4.8 0.00 0.00 0.00 36 1011.8
20260503193533 15 129 3.2 8.0 0.00 0.00 0.00 35 1011.9
20260503193028 15 329 1.6 6.4 0.00 0.00 0.00 33 1012.1
20260503192524 15 157 3.2 8.0 0.00 0.00 0.00 31 1012.2
20260503192020 16 272 8.0 11.3 0.00 0.00 0.00 31 1012.2
20260503191517 15 226 4.8 8.0 0.00 0.00 0.00 32 1012.3
20260503191014 15 111 9.7 12.9 0.00 0.00 0.00 33 1012.2
20260503190510 15 296 8.0 9.7 0.00 0.00 0.00 34 1012.5
20260503190008 15 206 3.2 6.4 0.00 0.00 0.00 33 1012.5
20260503185503 15 175 4.8 9.7 0.00 0.00 0.00 32 1012.3
20260503184958 15 133 4.8 12.9 0.00 0.00 0.00 33 1012.5
20260503184455 14 95 3.2 8.0 0.00 0.00 0.00 35 1012.4
20260503183951 15 194 6.4 8.0 0.00 0.00 0.00 33 1012.5
20260503183448 15 217 6.4 9.7 0.00 0.00 0.00 33 1012.6
20260503182945 15 237 3.2 6.4 0.00 0.00 0.00 36 1012.4
20260503182444 15 258 4.8 6.4 0.00 0.00 0.00 34 1012.6
20260503181941 15 108 1.6 8.0 0.00 0.00 0.00 35 1012.4
20260503181438 13 111 4.8 9.7 0.00 0.00 0.00 35 1012.4
20260503180934 14 246 4.8 9.7 0.00 0.00 0.00 36 1012.5
20260503180432 14 301 3.2 4.8 0.00 0.00 0.00 35 1012.6
20260503175929 13 190 8.0 9.7 0.00 0.00 0.00 35 1012.7
20260503175427 14 331 3.2 9.7 0.00 0.00 0.00 33 1012.7
20260503174922 13 167 4.8 6.4 0.00 0.00 0.00 36 1012.6
20260503174421 13 180 6.4 9.7 0.00 0.00 0.00 35 1012.7
20260503173921 14 209 3.2 8.0 0.00 0.00 0.00 35 1012.5
20260503173417 13 219 6.4 9.7 0.00 0.00 0.00 35 1012.7
20260503172914 13 236 4.8 14.5 0.00 0.00 0.00 36 1012.8
20260503172411 13 253 3.2 11.3 0.00 0.00 0.00 34 1012.9
20260503171907 13 183 3.2 4.8 0.00 0.00 0.00 35 1013.2
20260503171404 13 262 9.7 9.7 0.00 0.00 0.00 36 1012.9
20260503170902 13 131 9.7 9.7 0.00 0.00 0.00 36 1012.9
20260503170358 13 228 11.3 11.3 0.00 0.00 0.00 37 1013.0
20260503150750 11 208 3.2 8.0 0.00 0.00 0.00 40 1013.6
20260503150246 11 191 4.8 6.4 0.00 0.00 0.00 39 1013.3
20260503140211 8 248 6.4 11.3 0.00 0.00 0.00 44 1013.8
20260503131140 9 213 6.4 9.7 0.00 0.00 0.00 48 1013.8
20260503130638 8 105 1.6 6.4 0.00 0.00 0.00 50 1013.7
20260503130135 8 53 0.0 8.0 0.00 0.00 0.00 49 1013.7